Location: La Pernelle
(49.6188°N, 1.2999°W)
Time: 14:18:58
(UTC+00:00)

NOSS 8 (A) - Pass Details

Date: 12 June 2021
Orbit: 369 x 1767 km, 63.3° (Epoch: 16 July)

Event Time Altitude Azimuth Distance (km) Brightness Sun altitude
Exits shadow 22:19:14 14° 204° (SSW) 1,293 6.3 -13.5°
Maximum altitude 22:21:50 53° 129° (SE) 495 4.2 -13.6°
Drops below altitude 10° 22:24:41 10° 51° (NE) 1,382 7.1 -13.8°
Sets 22:26:39 0° 46° (NE) 2,234 8.2 -13.9°
